This demonstration page uses our WeatherBlox Daily Observations layout. Learn more.

Left ArrowRight Arrow

39.95238, -75.16362

Hourly Observations for August 7, 2022

Temp ( °F °C ) Dew Point ( °F °C ) Humidity (%) Winds ( mph kmh ) Pressure ( in mb ) Visibility ( mi km ) Precip ( " mm )
12:54 am 00:54 Mostly Cloudy 81 27.2 75 23.9 82 82 S 9 15 30.21 1023 10 16 0.00 0.00
1:54 am 01:54 Mostly Cloudy 81 27.2 75 23.9 82 82 SSW 9 15 30.20 1023 10 16 0.00 0.00
2:54 am 02:54 Mostly Cloudy 80 26.7 75 23.9 85 85 SSW 8 13 30.20 1023 10 16 0.00 0.00
3:54 am 03:54 Partly Cloudy 80 26.7 75 23.9 85 85 S 8 13 30.19 1023 10 16 0.00 0.00
4:54 am 04:54 Partly Cloudy 79 26.1 75 23.9 88 88 S 7 11 30.19 1022 10 16 0.00 0.00
5:54 am 05:54 Partly Cloudy 78 25.6 75 23.9 90 90 S 8 13 30.19 1022 10 16 0.00 0.00
6:54 am 06:54 Partly Cloudy 78 25.6 75 23.9 90 90 S 9 15 30.19 1023 10 16 0.00 0.00
7:54 am 07:54 Partly Cloudy 81 27.2 75 23.9 82 82 SW 13 20 30.20 1023 10 16 0.00 0.00
8:54 am 08:54 Mostly Cloudy 83 28.3 75 23.9 77 77 SW 15 24 30.20 1023 10 16 0.00 0.00
9:54 am 09:54 Mostly Cloudy 86 30 74 23.3 67 67 WSW 16 26 30.20 1023 10 16 0.00 0.00
10:54 am 10:54 Partly Cloudy 88 31.1 73 22.8 61 61 SW 17 28 30.19 1022 10 16 0.00 0.00
11:54 am 11:54 Partly Cloudy 90 32.2 73 22.8 58 58 SW 18 30 30.18 1022 10 16 0.00 0.00
12:54 pm 12:54 Mostly Cloudy 92 33.3 72 22.2 52 52 SW 21 33 30.15 1021 10 16 0.00 0.00
1:54 pm 13:54 Mostly Cloudy 92 33.3 70 21.1 49 49 SW 15 24 30.15 1021 10 16 0.00 0.00
2:54 pm 14:54 Mostly Cloudy 93 33.9 70 21.1 47 47 SW 17 28 30.13 1020 10 16 0.00 0.00
3:54 pm 15:54 Partly Cloudy 94 34.4 69 20.6 44 44 SW 17 28 30.11 1020 10 16 0.00 0.00
4:54 pm 16:54 Partly Cloudy 93 33.9 68 20 44 44 SW 17 28 30.09 1019 10 16 0.00 0.00
5:54 pm 17:54 Mostly Sunny 92 33.3 69 20.6 47 47 SSW 13 20 30.09 1019 10 16 0.00 0.00
6:54 pm 18:54 Mostly Sunny 91 32.8 68 20 47 47 SSW 14 22 30.09 1019 10 16 0.00 0.00
7:54 pm 19:54 Partly Cloudy 89 31.7 70 21.1 53 53 SSW 10 17 30.09 1019 10 16 0.00 0.00
8:54 pm 20:54 Partly Cloudy 87 30.6 71 21.7 59 59 SSW 10 17 30.10 1019 10 16 0.00 0.00
9:54 pm 21:54 Mostly Clear 85 29.4 73 22.8 68 68 S 9 15 30.11 1020 10 16 0.00 0.00
10:54 pm 22:54 Mostly Clear 84 28.9 73 22.8 70 70 SSW 10 17 30.11 1020 10 16 0.00 0.00
11:54 pm 23:54 Mostly Clear 83 28.3 74 23.3 74 74 SSW 14 22 30.10 1019 10 16 0.00 0.00

Powered by AerisWeather